Weather History for Pine Bluff, AR

Change the Weather History Date:

Tuesday, March 4, 2014

  Actual Average Record
Temperature  
Mean Temperature 25 °F 51 °F  
Max Temperature 30 °F 61 °F 93 °F (1918)
Min Temperature 20 °F 41 °F 19 °F (2002)
Degree Days  
Heating Degree Days 40 15  
Month to date heating degree days 103 60  
Since 1 July heating degree days 2872 2448  
Cooling Degree Days 0 0  
Month to date cooling degree days 0 0  
Year to date cooling degree days 0 3  
Moisture  
Dew Point 19 °F    
Average Humidity 79    
Maximum Humidity 85    
Minimum Humidity 72    
Precipitation  
Precipitation 0.00 in 0.19 in 2.00 in (1977)
Month to date precipitation 1.67 0.73  
Year to date precipitation 7.10 8.55  
Snow  
Snow 0.00 in 0.00 in 2.00 in (1917)
Month to date snowfall T 0.0  
Since 1 July snowfall 3.7 3.1  
Snow Depth 0.00 in    
Sea Level Pressure  
Sea Level Pressure 30.24 in    
Wind  
Wind Speed 7 mph (NE)    
Max Wind Speed 15 mph    
Max Gust Speed 21 mph    
Visibility 10 miles    
Events      
T = Trace of Precipitation, MM = Missing Value Source: NWS Daily Summary

Daily Weather History Graph

Daily Weather History Graph

Search for Another Location

Airport:

Trip Planner

Search our weather history database for the weather conditions in past years. The results will help you decide how hot, cold, wet, or windy it might be!

Date:

Astronomy

Mar. 04, 2014 Rise Set
Actual Time 6:32 AM CST 6:06 PM CST
Civil Twilight 6:07 AM CST 6:31 PM CST
Nautical Twilight 5:38 AM CST 7:00 PM CST
Astronomical Twilight 5:09 AM CST 7:29 PM CST
Moon 8:30 AM CST (3/4) 10:01 PM CST (3/4)
Length of Visible Light 12h 24m
Length of Day
11h 33m
Waxing Crescent, 15% of the Moon is Illuminated
Mar 4
Waxing Crescent
Mar 8
First Quarter
Mar 16
Full
Mar 23
Last Quarter
Mar 30
New

Hourly Weather History & Observations

Time (CST) Temp. Windchill Dew Point Humidity Pressure Visibility Wind Dir Wind Speed Gust Speed Precip Events Conditions
12:53 AM 21.9 °F 11.7 °F 15.1 °F 75% 30.32 in 10.0 mi NE 9.2 mph - N/A   Clear
1:53 AM 21.0 °F 9.9 °F 15.1 °F 78% 30.31 in 10.0 mi NNE 10.4 mph - N/A   Partly Cloudy
2:40 AM 19.4 °F 8.6 °F 15.8 °F 86% 30.29 in 10.0 mi NE 9.2 mph - N/A   Mostly Cloudy
2:51 AM 19.4 °F 7.9 °F 15.8 °F 86% 30.29 in 10.0 mi NE 10.4 mph - N/A   Scattered Clouds
2:53 AM 19.9 °F 8.6 °F 15.1 °F 81% 30.29 in 10.0 mi NNE 10.4 mph - N/A   Scattered Clouds
3:08 AM 21.2 °F 10.1 °F 15.8 °F 80% 30.28 in 10.0 mi NE 10.4 mph - N/A   Mostly Cloudy
3:53 AM 19.9 °F 11.1 °F 15.1 °F 81% 30.28 in 10.0 mi NE 6.9 mph - N/A   Overcast
4:30 AM 21.2 °F 14.9 °F 15.8 °F 80% 30.26 in 10.0 mi NE 4.6 mph - N/A   Scattered Clouds
4:37 AM 19.4 °F 11.5 °F 15.8 °F 86% 30.26 in 10.0 mi ENE 5.8 mph - N/A   Mostly Cloudy
4:53 AM 21.0 °F 11.4 °F 15.1 °F 78% 30.25 in 10.0 mi ENE 8.1 mph - N/A   Overcast
5:53 AM 21.0 °F 14.6 °F 16.0 °F 81% 30.27 in 10.0 mi NNE 4.6 mph - N/A   Overcast
6:53 AM 21.0 °F 13.4 °F 16.0 °F 81% 30.28 in 10.0 mi North 5.8 mph - N/A   Overcast
7:53 AM 21.9 °F 11.0 °F 17.1 °F 82% 30.29 in 10.0 mi NE 10.4 mph - N/A   Overcast
8:53 AM 23.0 °F 13.9 °F 17.1 °F 78% 30.31 in 10.0 mi NNE 8.1 mph - N/A   Overcast
9:53 AM 23.0 °F 13.9 °F 18.0 °F 81% 30.31 in 10.0 mi North 8.1 mph - N/A   Overcast
10:53 AM 24.1 °F 14.4 °F 18.0 °F 77% 30.30 in 10.0 mi North 9.2 mph - N/A   Overcast
11:53 AM 25.0 °F 17.1 °F 19.0 °F 78% 30.27 in 10.0 mi North 6.9 mph - N/A   Overcast
12:28 PM 24.8 °F 19.1 °F 19.4 °F 80% 30.25 in 10.0 mi NNE 4.6 mph - N/A   Overcast
12:53 PM 26.1 °F 20.5 °F 19.9 °F 78% 30.25 in 9.0 mi NE 4.6 mph - N/A   Overcast
1:04 PM 26.6 °F 22.6 °F 19.4 °F 74% 30.23 in 9.0 mi NNE 3.5 mph - N/A   Overcast
1:53 PM 27.0 °F 21.6 °F 21.0 °F 78% 30.22 in 10.0 mi ENE 4.6 mph - N/A   Overcast
2:17 PM 26.6 °F 22.6 °F 19.4 °F 74% 30.20 in 10.0 mi East 3.5 mph - N/A   Scattered Clouds
2:53 PM 28.0 °F 24.2 °F 21.0 °F 75% 30.20 in 10.0 mi NE 3.5 mph - N/A   Scattered Clouds
3:20 PM 28.4 °F - 21.2 °F 74% 30.18 in 10.0 mi Calm Calm - N/A   Mostly Cloudy
3:48 PM 28.4 °F 24.6 °F 21.2 °F 74% 30.18 in 10.0 mi Variable 3.5 mph - N/A   Scattered Clouds
3:53 PM 30.0 °F - 23.0 °F 75% 30.19 in 10.0 mi Calm Calm - N/A   Scattered Clouds
4:53 PM 30.0 °F 25.2 °F 23.0 °F 75% 30.18 in 10.0 mi ENE 4.6 mph - N/A   Clear
5:53 PM 28.9 °F 22.8 °F 23.0 °F 78% 30.17 in 10.0 mi NNE 5.8 mph - N/A   Clear
6:53 PM 28.0 °F 21.7 °F 23.0 °F 81% 30.17 in 10.0 mi NNE 5.8 mph - N/A   Clear
7:53 PM 27.0 °F 19.5 °F 23.0 °F 85% 30.21 in 10.0 mi NNE 6.9 mph - N/A   Mostly Cloudy
8:53 PM 27.0 °F 18.7 °F 23.0 °F 85% 30.19 in 10.0 mi East 8.1 mph - N/A   Overcast
9:53 PM 28.0 °F 20.8 °F 24.1 °F 85% 30.17 in 10.0 mi ESE 6.9 mph - N/A   Overcast
10:53 PM 28.0 °F 20.8 °F 24.1 °F 85% 30.18 in 10.0 mi ENE 6.9 mph - N/A   Overcast
11:14 PM 26.6 °F 22.6 °F 24.8 °F 93% 30.17 in 10.0 mi NE 3.5 mph - N/A   Mostly Cloudy
11:53 PM 27.0 °F 19.5 °F 24.1 °F 89% 30.17 in 10.0 mi East 6.9 mph - N/A   Mostly Cloudy